Starlink 4286

operational
NORAD ID: 52990 Int'l Des: 2022-076 Owner: SPXS Country: US Constellation: starlink
LEOCIRCULAR

关于 Starlink 4286

正在加载描述...

实时位置

正在加载3D地球...

即将过境

高度历史

Altitude vs Time

uPlot chart will show altitude changes over time

两行轨道根数

1 52990U 22076E 26037.80956013 .00000091 00000-0 23830-4 0 9992
2 52990 53.2162 242.7453 0001561 90.9013 269.2158 15.08833951198046
Epoch: Feb 6, 2026 • Age: 6 hours

当前状态

高度 539.6 km
速度 7.60 km/s
星下点 14.19°N, 87.17°E
发射日期 Jul 7, 2022
运行时间 3.5 years
类型 internet

技术详情

分类 Payload
质量 297.00 kg
干质量 275.00 kg
总质量 297.00 kg
长度 0.20 m
直径 2.80 m
跨度 9.00 m
形状 Box + pan
制造商 SPXS
平台类型 Starlink
阶段状态 In Orbit
所有者/国家 SPXS/US

大型星座

Loading constellations...